Location: Banksville Park
(38.5557°N, 75.1182°W)
Time: 02:41:53
(UTC+00:00)

Envisat - Pass Details

Date: 01 December 2020
Orbit: 764 x 766 km, 98.1° (Epoch: 16 January)

Event Time Altitude Azimuth Distance (km) Brightness Sun altitude
Rises 10:20:48 0° 20° (NNE) 3,239 6.3 -18.9°
Reaches altitude 10° 10:23:15 10° 28° (NNE) 2,309 5.6 -18.4°
Maximum altitude 10:28:02 41° 98° (E) 1,101 4.4 -17.5°
Drops below altitude 10° 10:32:47 10° 168° (SSE) 2,293 5.8 -16.6°
Sets 10:35:12 0° 176° (S) 3,214 6.5 -16.2°
